This is the latest recevied weather packets stored in our database for station/object IR9AK-10. If no packets are shown the sender has not sent any weather packets the latest 10 day(s).
| Time | Temp. | Humidity | Pressure | Rain* | Wind** | Luminosity | Snow |
|---|---|---|---|---|---|---|---|
| 1778084296 | 24.44° C | 48% | 1057.6 hPa | - | - | - | - |
| 1778083698 | 24.44° C | 45% | 1057.5 hPa | - | - | - | - |
| 1778083099 | 23.89° C | 46% | 1057.7 hPa | - | - | - | - |
| 1778082500 | 23.89° C | 46% | 1057.7 hPa | - | - | - | - |
| 1778081901 | 24.44° C | 46% | 1057.7 hPa | - | - | - | - |
| 1778081301 | 24.44° C | 45% | 1057.7 hPa | - | - | - | - |
| 1778080702 | 23.89° C | 45% | 1057.7 hPa | - | - | - | - |
| 1778079640 | 23.89° C | 41% | 1057.7 hPa | - | - | - | - |
| 1778079041 | 23.89° C | 42% | 1057.6 hPa | - | - | - | - |
| 1778078441 | 24.44° C | 43% | 1057.5 hPa | - | - | - | - |
| 1778077842 | 24.44° C | 45% | 1057.4 hPa | - | - | - | - |
| 1778077243 | 25° C | 43% | 1057.4 hPa | - | - | - | - |
| 1778076643 | 25° C | 40% | 1057.2 hPa | - | - | - | - |
| 1778076045 | 25.56° C | 39% | 1057.1 hPa | - | - | - | - |
| 1778075445 | 25.56° C | 38% | 1057.1 hPa | - | - | - | - |
| 1778074845 | 25.56° C | 39% | 1056.9 hPa | - | - | - | - |
| 1778074246 | 25.56° C | 38% | 1057.2 hPa | - | - | - | - |
| 1778073647 | 25.56° C | 38% | 1057.2 hPa | - | - | - | - |
| 1778072671 | 25° C | 40% | 1057.3 hPa | - | - | - | - |
| 1778072072 | 25.56° C | 38% | 1057.6 hPa | - | - | - | - |
| 1778071474 | 25° C | 38% | 1057.6 hPa | - | - | - | - |
| 1778070874 | 25° C | 37% | 1057.6 hPa | - | - | - | - |
| 1778070275 | 25° C | 39% | 1057.7 hPa | - | - | - | - |
| 1778069675 | 25° C | 40% | 1057.8 hPa | - | - | - | - |
| 1778069107 | 24.44° C | 42% | 1057.8 hPa | - | - | - | - |
* Rain since midnight (hover to see other rain measurements)
** Current wind speed in m/s (hover to see current wind gust speed)